Regional Weather Roundup
Issued by NWS

Home | Current Version | Previous Version | Text Only | Print | Product List | Glossary Off
Versions: 1 2 3 4 5 6 7 8 9 10 11 12 13 14 15 16 17 18 19 20 21 22 23 24 25 26 27 28 29 30 31 32 33 34 35 36 37 38 39 40 41 42 43 44 45 46 47 48 49 50

000
ASUS45 KTFX 210404
RWRMT
MONTANA HOURLY WEATHER ROUNDUP
NATIONAL WEATHER SERVICE GREAT FALLS MT
1004 PM MDT SAT SEP 20 2014

NOTE: "FAIR" INDICATES FEW OR NO CLOUDS BELOW 12000 FEET WITH NO
SIGNIFICANT WEATHER AND/OR OBSTRUCTIONS TO VISIBILITY.

* THESE STATIONS ARE NOT UNDER NWS QUALITY CONTROL. THEY DO NOT
   REPORT WEATHER SUCH AS PRECIPITATION OR FOG.

MTZ001>007-043-210500-
WEST OF THE DIVIDE
CITY           SKY/WX    TMP DP  RH WIND       PRES   REMARKS
KALISPELL      CLEAR     52  46  80 CALM      30.15R
MISSOULA       CLEAR     63  39  41 N3        30.15S
BUTTE          CLEAR     57  37  47 S6        30.29R
MULLAN PASS    CLEAR     59  36  42 SE10G18   30.27S
* ESSEX        N/A       54  43  67 SE4        N/A
* LINCOLN      N/A       62  42  48 NE4G9      N/A
* LOOKOUT PASS N/A       58  40  51 S2         N/A
* POLSON       N/A       59  41  51 N/A        N/A
* RONAN APT    CLEAR     54  43  67 N/A        N/A
* SEELEY LAKE  N/A       50  36  59 N2         N/A
* THOMP F APT  CLEAR     59  37  44 N7         N/A
$$

MTZ008-052>055-210500-
SOUTHWEST MONTANA
CITY           SKY/WX    TMP DP  RH WIND       PRES   REMARKS
BOZEMAN        CLEAR     50  43  77 N5        30.25R
DILLON         CLEAR     57  39  51 E8        30.24R
W YELLOWSTONE  CLEAR     45  39  80 SE3       30.32S
* THREE FORKS  CLEAR     48  48 100 N/A        N/A
* BOULDER HILL N/A       56  34  44 SW2        N/A
* MONIDA PASS  N/A       56  37  49 NW3        N/A
* RAYNOLDS PAS N/A       53   4  13 N6         N/A
* WHITEHALL    N/A       62  39  43 NE5G12     N/A
* WISE RIVER   N/A       60  30  32 S9         N/A
$$

MTZ009>010-012-014-046-048-049-054-210500-
EAST SLOPES AND CENTRAL MONTANA
CITY           SKY/WX    TMP DP  RH WIND       PRES   REMARKS
CUT BANK       CLEAR     59  41  51 SE3       30.27R
GREAT FALLS    CLEAR     55  41  59 E9        30.26R
HELENA         CLEAR     63  41  45 W9        30.22R
MALMSTROM AFB  CLEAR     55  41  59 E2        30.27R
* CONRAD       CLEAR     55  43  64 N/A        N/A
* EAST GLACIER N/A       52  42  69 NE4        N/A
* MONARCH      N/A       47  40  77 SE8        N/A
* PENDROY      N/A       53  44  72 E1         N/A
* ROGERS PASS  N/A       52  40  64 NW3        N/A
* SAINT MARY   N/A       56  45  67 NE4G10     N/A
* SWEET GRASS  N/A       60  37  43 SE3        N/A
$$

MTZ011-013-016-021-035-040-045-047-050-051-210500-
NORTH CENTRAL MONTANA
CITY           SKY/WX    TMP DP  RH WIND       PRES   REMARKS
HAVRE          CLEAR     52  39  61 S3        30.24R
LEWISTOWN      CLEAR     52  45  77 E6        30.29S
* CHESTER      N/A       58  37  46 E6         N/A
* DENTON       N/A       51  43  74 SE4        N/A
* GEYSER       N/A       48  45  89 S8         N/A
* JUDITH GAP   N/A       54  44  69 W3         N/A
* LOMA         N/A       60  40  48 E1         N/A
$$

MTZ017>020-022>027-061-062-210500-
NORTHEAST MONTANA
CITY           SKY/WX    TMP DP  RH WIND       PRES   REMARKS
GLASGOW        CLEAR     52  36  55 W5        30.22R
JORDAN         CLEAR     46  39  77 W3        30.25R
SIDNEY         CLEAR     52  36  55 W10       30.21R
WOLF POINT     CLEAR     48  37  66 W3        30.21R
* BEAVER HILL  N/A       54  31  42 W5         N/A
* CIRCLE       N/A       59  38  46 N/A        N/A
* LINDSAY DVD  N/A       49  36  61 NW7        N/A
$$

MTZ028>042-056>058-210500-
SOUTHCENTRAL AND SOUTHEAST MONTANA
CITY           SKY/WX    TMP DP  RH WIND       PRES   REMARKS
BAKER          CLEAR     52  36  55 NW6       30.24R
BILLINGS       CLEAR     61  43  52 N6        30.27R
LIVINGSTON     CLEAR     59  43  56 SE10      30.26S
MILES CITY     CLEAR     55  37  51 NW8       30.24R
* LAUREL APT   CLEAR     57  39  51 N/A        N/A
* ROUNDUP APT  CLEAR     61  39  44 N/A        N/A
* ALZADA       N/A       52  37  57 NW2        N/A
* HYSHAM       N/A      N/A N/A N/A N/A        N/A
* LAME DEER    N/A       57  39  51 NE5        N/A
* REED POINT   N/A       54  45  72 N/A        N/A
* ROSCOE HILL  N/A       57  33  40 S6         N/A
$$

REGIONAL REPORTS...DAKOTAS
CITY           SKY/WX    TMP DP  RH WIND       PRES   REMARKS
WILLISTON      CLEAR     52  37  57 W9        30.17R
DICKINSON      CLEAR     46  36  68 W7        30.18R
BEACH          N/A       48  32  54 NW7       30.23R
CROSBY         CLEAR     52  41  66 W9        30.15R
TIOGA          CLEAR     48  39  71 W10       30.18R
WATFORD CITY   CLEAR     54  36  51 W7        30.16R
BISMARCK       CLEAR     55  41  59 W9        30.12R
GRAND FORKS    CLOUDY    54  52  93 NW8       29.95R
FARGO          MOCLDY    55  50  83 N7        29.95R
BUFFALO SD     CLEAR     57  36  46 N17       30.17R
RAPID CITY     CLEAR     54  39  57 NW9       30.25R
$$

REGIONAL REPORTS...WYOMING/IDAHO/WASHINGTON
CITY           SKY/WX    TMP DP  RH WIND       PRES   REMARKS
GILLETTE       CLEAR     43  37  79 SW3       30.30R
SHERIDAN       CLEAR     48  43  83 CALM      30.29R
CODY           CLEAR    N/A N/A N/A N/A        N/A
YELLOWSTONE LA CLEAR     41  37  86 W3        30.42R
SALMON         CLEAR     55  46  72 CALM      30.11R
MULLAN PASS    CLEAR     59  36  42 SE10G18   30.27S
SAND POINT     CLEAR     54  46  74 CALM      30.09R
SPOKANE        CLEAR     70  45  41 NE7       30.05F
$$

REGIONAL REPORTS...ALBERTA
CITY           SKY/WX    TMP DP  RH WIND       PRES   REMARKS
MEDICINE HAT   HAZE      50  43  77 S3        30.22R

$$




USA.gov is the U.S. government's official web portal to all federal, state and local government web resources and services.